EW7001 Weather Reports


time (UTC)temp
C
wind
direction
speed
KPH
gust
KPH
rain 1hr
cm
rain 24hr
cm
rain mn
cm
humidity
%
barometer
mb
20260504081513 6 68 1.6 8.0 0.00 1.73 1.17 56 1002.0
20260504044551 4 56 1.6 3.2 0.00 1.73 1.17 66 1003.3
20260504043051 5 56 1.6 4.8 0.00 1.73 1.17 64 1003.5
20260504041549 4 89 1.6 3.2 0.00 1.73 1.17 65 1003.6
20260504040046 5 46 0.0 4.8 0.00 1.73 1.17 62 1003.6
20260504034554 5 81 1.6 3.2 0.00 1.73 1.17 60 1003.7
20260504033051 5 117 0.0 3.2 0.00 1.73 1.17 59 1003.7
20260504031534 7 135 1.6 3.2 0.00 1.73 1.17 50 1003.5
20260504030030 9 113 1.6 3.2 0.00 1.73 1.17 45 1003.5
20260504024532 11 223 0.0 3.2 0.00 1.73 1.17 40 1003.6
20260504023017 12 223 1.6 3.2 0.00 1.73 1.17 37 1003.4
20260504021518 15 178 0.0 3.2 0.00 1.73 1.17 31 1003.3
20260504020015 16 321 1.6 6.4 0.00 1.73 1.17 28 1003.3
20260504014518 16 295 1.6 8.0 0.00 2.01 1.17 27 1003.3
20260504013019 17 283 4.8 14.5 0.05 2.01 1.17 24 1003.4
20260504011512 18 342 6.4 19.3 0.13 2.01 1.17 24 1003.5
20260504010007 18 321 9.7 19.3 0.15 2.01 1.17 24 1003.7
20260504004507 19 303 8.0 22.5 0.20 2.31 1.17 22 1003.9
20260504003004 19 281 8.0 30.6 0.15 2.26 1.12 24 1003.9
20260504001505 19 312 8.0 30.6 0.08 2.18 1.04 23 1004.0
20260504000138 19 304 8.0 20.9 0.10 2.16 1.02 22 1004.1
20260503234603 20 297 11.3 25.7 0.08 2.59 0.97 22 1004.1
20260503233057 20 308 8.0 25.7 0.13 2.59 0.97 23 1004.2
20260503231556 19 25 9.7 24.1 0.13 2.59 0.97 26 1004.2
20260503230025 20 279 9.7 19.3 0.15 2.54 0.91 27 1004.2
20260503224528 20 336 11.3 24.1 0.15 2.72 0.89 28 1004.3
20260503223016 18 303 11.3 19.3 0.10 2.67 0.84 28 1004.3
20260503221513 19 305 11.3 24.1 0.08 2.64 0.81 25 1004.6
20260503220018 19 295 11.3 22.5 0.03 2.59 0.76 24 1004.7
20260503214510 20 269 11.3 22.5 0.00 2.90 0.71 28 1004.8
20260503213004 19 290 11.3 24.1 0.05 2.90 0.71 27 1005.1
20260503211503 18 299 8.0 24.1 0.05 2.90 0.71 32 1005.5
20260503210059 18 293 9.7 24.1 0.05 2.90 0.71 31 1005.7
20260503204557 18 112 8.0 22.5 0.05 2.92 0.71 32 1005.8
20260503203056 18 314 12.9 29.0 0.00 2.87 0.69 31 1005.9
20260503201550 18 278 12.9 29.0 0.00 2.87 0.69 32 1006.0
20260503200046 18 338 6.4 24.1 0.00 2.87 0.69 33 1006.1
20260503194539 17 290 12.9 24.1 0.18 3.07 0.69 31 1006.4
20260503193030 17 286 8.0 22.5 0.33 3.07 0.69 37 1006.6
20260503191525 16 227 14.5 37.0 0.33 3.07 0.69 37 1006.9
20260503190018 16 274 14.5 25.7 0.41 3.07 0.69 45 1007.2
20260503184518 14 248 16.1 29.0 0.30 2.87 0.51 56 1007.5
20260503183044 13 221 22.5 33.8 0.20 2.74 0.36 63 1007.9
20260503181532 13 244 22.5 41.8 0.30 2.74 0.36 53 1008.4
20260503180029 16 232 17.7 24.1 0.28 2.67 0.28 36 1008.3
20260503174524 16 202 16.1 25.7 0.23 2.59 0.20 37 1008.5
20260503173017 16 163 12.9 27.4 0.30 2.54 0.15 37 1008.6
20260503171511 16 165 12.9 24.1 0.36 2.44 0.05 38 1008.7